星链-30078 (STARLINK-30078 )

导读 | 星芒AI

STARLINK-30078 是 SpaceX Starlink 项目中的一颗低轨通信卫星,属于第三代星链卫星群。该卫星于2024年发射,旨在为全球用户提供高速、低延迟的互联网服务。它运行在约550公里高度的近地轨道,采用先进推进系统和激光通信技术,以提升网络效率和稳定性。作为星链计划的重要组成部分,STARLINK-30078 有助于扩大卫星互联网覆盖范围,特别是在偏远和网络基础设施薄弱的地区。

基本信息
目录编号:
56841
目录名称:
STARLINK-30078
国际标识:
2023-079U
轨道中心:
EARTH
卫星名称:
星链-30078
卫星全名:
星链-30078 (STARLINK-30078 )
卫星状态:
在轨 (已飞行879 天)
发射日期:
2023-06-04 UTC
国别 :
美国 (US)
星等 :
--
轨道信息
数据来源 国际轨道数据
星历时间: 2025-10-30T02:06:55+0800
21小时前
查看轨道信息
半长轴: 6861.152km
偏心率: 0.0001517
轨道倾角: 43.003°
近地点辐角 264.272°
升交点赤经 78.816°
平近点角 95.796°
近地点: 481.976km
远地点: 484.058km
周期: 94.266分钟
每日圈数: 15.275914
详细信息
固有亮度:
5
最大亮度:
0.5
卫星平台:
Starlink v2.0 mini
覆盖范围:
全球
运营商:
太空探索技术公司
运营商所在国:
美国
制造商(研发单位):
太空探索技术公司
制造商所在国:
美国
使用方式:
暂无
卫星简介
星链(Starlink)计划是由太空探索技术公司(SpaceX)提出的一个巨型低轨卫星互联网星座项目,计划在2019年至2024年间在太空搭建由约1.2万颗卫星组成的“星链”网络,其中1584颗将部署在地球上空550千米处的近地轨道,并从2020年开始工作。该卫星仍在工作。
2D轨道图
3D轨道图
轨道高度分析图
轨道倾角分析图
轨道综合分析图
查看轨道综合分析图